Back to Top

Language: 

My Weather Underground Personal Weather Station Historical Data with Graphs...

Delerius Weather Station Historical Data
Daily Summary for March 11, 2017 Units:  Metric    English   Both
« Previous Day
Next Day »
Daily Weekly Monthly Yearly Custom
  High: Low: Average:
Temperature: 13.4 °C 9.2 °C 11.2 °C
Dew Point: 10.7 °C 7.2 °C 9.2 °C
Humidity: 94 % 78 % 88 %
Wind Speed: 14.5 km/h 0 km/h 6.9 km/h
Wind Gust: 20.9 km/h - -
Wind:- - South
Pressure: 1019.2 hPa 1012.1 hPa -
Precipitation: 0.25 mm    
Historical Graphs
 
 
Tabular Data for March 11, 2017
Time Temperature Dew Point Pressure Wind Wind Speed Wind Gust Humidity Rainfall Rate (Hourly) solar Conditions
00:00 9.8 °C 8.7 °C 1019.2 hPa SE 4.8 km/h 4.8 km/h 93 % 0 mm 0 W/m2
00:05 9.8 °C 8.7 °C 1019.2 hPa SE 6.4 km/h 6.4 km/h 93 % 0 mm 0 W/m2
00:15 9.8 °C 8.9 °C 1019.2 hPa SE 6.4 km/h 9.7 km/h 94 % 0 mm 0 W/m2
00:20 9.8 °C 8.9 °C 1019.2 hPa South 6.4 km/h 6.4 km/h 94 % 0 mm 0 W/m2
00:25 9.9 °C 8.9 °C 1019.2 hPa SE 6.4 km/h 6.4 km/h 94 % 0 mm 0 W/m2
00:30 9.9 °C 8.9 °C 1018.8 hPa SE 6.4 km/h 8 km/h 94 % 0 mm 0 W/m2
00:35 9.9 °C 9 °C 1018.8 hPa SSE 8 km/h 8 km/h 94 % 0 mm 0 W/m2
00:40 9.9 °C 9 °C 1018.8 hPa SSE 9.7 km/h 9.7 km/h 94 % 0 mm 0 W/m2
00:45 9.9 °C 9 °C 1018.8 hPa SE 9.7 km/h 9.7 km/h 94 % 0 mm 0 W/m2
00:50 9.9 °C 9 °C 1018.8 hPa ESE 8 km/h 8 km/h 94 % 0 mm 0 W/m2
00:55 9.9 °C 8.9 °C 1018.5 hPa SE 6.4 km/h 8 km/h 94 % 0 mm 0 W/m2
01:05 9.8 °C 8.9 °C 1018.8 hPa ESE 8 km/h 12.9 km/h 94 % 0 mm 0 W/m2
01:10 9.8 °C 8.9 °C 1018.8 hPa East 6.4 km/h 6.4 km/h 94 % 0 mm 0 W/m2
01:15 9.8 °C 8.8 °C 1018.5 hPa East 4.8 km/h 12.9 km/h 94 % 0 mm 0 W/m2
01:20 9.8 °C 8.8 °C 1018.8 hPa East 4.8 km/h 4.8 km/h 94 % 0 mm 0 W/m2
01:30 9.7 °C 8.8 °C 1018.5 hPa ESE 6.4 km/h 12.9 km/h 94 % 0 mm 0 W/m2
01:40 9.6 °C 8.7 °C 1018.5 hPa ESE 6.4 km/h 12.9 km/h 94 % 0 mm 0 W/m2
01:45 9.6 °C 8.6 °C 1018.5 hPa ESE 6.4 km/h 12.9 km/h 94 % 0 mm 0 W/m2
01:50 9.6 °C 8.6 °C 1018.5 hPa SE 6.4 km/h 12.9 km/h 94 % 0 mm 0 W/m2
01:55 9.5 °C 8.6 °C 1018.5 hPa South 6.4 km/h 12.9 km/h 94 % 0 mm 0 W/m2
02:00 9.5 °C 8.6 °C 1018.5 hPa South 4.8 km/h 4.8 km/h 94 % 0 mm 0 W/m2
02:05 9.5 °C 8.6 °C 1018.2 hPa SSW 6.4 km/h 6.4 km/h 94 % 0 mm 0 W/m2
02:15 9.5 °C 8.6 °C 1018.2 hPa South 9.7 km/h 12.9 km/h 94 % 0 mm 0 W/m2
02:20 9.6 °C 8.5 °C 1017.8 hPa South 9.7 km/h 9.7 km/h 93 % 0 mm 0 W/m2
02:25 9.6 °C 8.5 °C 1017.8 hPa SW 6.4 km/h 12.9 km/h 93 % 0 mm 0 W/m2
02:30 9.6 °C 8.5 °C 1017.8 hPa SSW 4.8 km/h 12.9 km/h 93 % 0 mm 0 W/m2
02:35 9.6 °C 8.6 °C 1017.8 hPa South 4.8 km/h 16.1 km/h 93 % 0 mm 0 W/m2
02:45 9.7 °C 8.5 °C 1017.8 hPa South 6.4 km/h 14.5 km/h 92 % 0 mm 0 W/m2
02:50 9.8 °C 8.6 °C 1017.8 hPa South 6.4 km/h 12.9 km/h 92 % 0 mm 0 W/m2
02:55 9.8 °C 8.4 °C 1017.8 hPa SSW 8 km/h 12.9 km/h 91 % 0 mm 0 W/m2
03:05 9.7 °C 7.8 °C 1017.8 hPa SSW 14.5 km/h 20.9 km/h 88 % 0 mm 0 W/m2
03:10 9.7 °C 7.6 °C 1017.8 hPa SSW 14.5 km/h 14.5 km/h 87 % 0 mm 0 W/m2
03:15 9.6 °C 7.4 °C 1017.5 hPa SSW 12.9 km/h 14.5 km/h 86 % 0 mm 0 W/m2
03:20 9.6 °C 7.4 °C 1017.5 hPa SSW 8 km/h 8 km/h 86 % 0 mm 0 W/m2
03:25 9.5 °C 7.3 °C 1017.5 hPa SSW 4.8 km/h 12.9 km/h 86 % 0 mm 0 W/m2
03:30 9.4 °C 7.2 °C 1017.5 hPa West 4.8 km/h 12.9 km/h 86 % 0 mm 0 W/m2
03:35 9.4 °C 7.2 °C 1017.5 hPa SW 6.4 km/h 12.9 km/h 86 % 0 mm 0 W/m2
03:40 9.4 °C 7.2 °C 1017.5 hPa WSW 8 km/h 12.9 km/h 86 % 0 mm 0 W/m2
03:45 9.4 °C 7.2 °C 1017.5 hPa SSW 6.4 km/h 12.9 km/h 86 % 0 mm 0 W/m2
03:55 9.4 °C 7.4 °C 1017.5 hPa WSW 3.2 km/h 12.9 km/h 87 % 0 mm 0 W/m2
04:00 9.4 °C 7.4 °C 1017.5 hPa SW 4.8 km/h 4.8 km/h 87 % 0 mm 0 W/m2
04:05 9.4 °C 7.3 °C 1017.5 hPa WSW 4.8 km/h 6.4 km/h 87 % 0 mm 0 W/m2
04:15 9.4 °C 7.3 °C 1017.2 hPa SW 9.7 km/h 12.9 km/h 87 % 0 mm 0 W/m2
04:20 9.4 °C 7.3 °C 1017.2 hPa WSW 8 km/h 8 km/h 87 % 0 mm 0 W/m2
04:30 9.4 °C 7.6 °C 1017.2 hPa SW 9.7 km/h 12.9 km/h 88 % 0 mm 0 W/m2
04:35 9.4 °C 7.6 °C 1017.2 hPa SW 9.7 km/h 12.9 km/h 88 % 0 mm 0 W/m2
04:40 9.4 °C 7.6 °C 1017.2 hPa SW 11.3 km/h 12.9 km/h 88 % 0 mm 0 W/m2
04:45 9.4 °C 7.5 °C 1017.2 hPa SSW 11.3 km/h 12.9 km/h 88 % 0 mm 0 W/m2
04:50 9.4 °C 7.5 °C 1017.2 hPa SW 11.3 km/h 12.9 km/h 88 % 0 mm 0 W/m2
05:00 9.4 °C 7.5 °C 1017.2 hPa SW 8 km/h 12.9 km/h 88 % 0 mm 0 W/m2
05:05 9.3 °C 7.4 °C 1017.2 hPa SW 8 km/h 12.9 km/h 88 % 0 mm 0 W/m2
05:10 9.4 °C 7.5 °C 1017.2 hPa SW 9.7 km/h 12.9 km/h 88 % 0 mm 0 W/m2
05:15 9.4 °C 7.5 °C 1016.8 hPa SSW 8 km/h 12.9 km/h 88 % 0 mm 0 W/m2
05:20 9.4 °C 7.7 °C 1016.8 hPa SSW 6.4 km/h 6.4 km/h 89 % 0 mm 0 W/m2
05:25 9.3 °C 7.6 °C 1016.8 hPa SSW 3.2 km/h 12.9 km/h 89 % 0 mm 0 W/m2
05:35 9.4 °C 7.7 °C 1016.8 hPa South 3.2 km/h 12.9 km/h 89 % 0 mm 0 W/m2
05:45 9.3 °C 7.6 °C 1016.8 hPa SSW 4.8 km/h 12.9 km/h 89 % 0 mm 0 W/m2
05:50 9.3 °C 7.6 °C 1016.8 hPa SW 8 km/h 14.5 km/h 89 % 0 mm 0 W/m2
05:55 9.3 °C 7.6 °C 1016.8 hPa SSW 9.7 km/h 14.5 km/h 89 % 0 mm 0 W/m2
06:00 9.3 °C 7.6 °C 1016.8 hPa SW 11.3 km/h 11.3 km/h 89 % 0 mm 0 W/m2
06:10 9.3 °C 7.6 °C 1016.5 hPa SSW 11.3 km/h 11.3 km/h 89 % 0 mm 0 W/m2
06:15 9.3 °C 7.6 °C 1016.5 hPa SSW 11.3 km/h 12.9 km/h 89 % 0 mm 0 W/m2
06:20 9.2 °C 7.5 °C 1016.5 hPa SSW 11.3 km/h 12.9 km/h 89 % 0 mm 0 W/m2
06:25 9.2 °C 7.5 °C 1016.5 hPa SSW 11.3 km/h 12.9 km/h 89 % 0 mm 0 W/m2
06:30 9.2 °C 7.5 °C 1016.5 hPa SSW 9.7 km/h 9.7 km/h 89 % 0 mm 0 W/m2
06:40 9.2 °C 7.5 °C 1016.5 hPa South 11.3 km/h 11.3 km/h 89 % 0 mm 5 W/m2
06:45 9.2 °C 7.5 °C 1016.5 hPa SSW 11.3 km/h 12.9 km/h 89 % 0 mm 7 W/m2
06:50 9.2 °C 7.5 °C 1016.5 hPa SSW 9.7 km/h 12.9 km/h 89 % 0 mm 9 W/m2
07:00 9.2 °C 7.4 °C 1016.8 hPa SSW 11.3 km/h 11.3 km/h 89 % 0 mm 18 W/m2
07:05 9.2 °C 7.4 °C 1016.8 hPa SSW 11.3 km/h 12.9 km/h 89 % 0 mm 21 W/m2
07:15 9.3 °C 7.6 °C 1016.8 hPa South 12.9 km/h 19.3 km/h 89 % 0 mm 33 W/m2
07:20 9.3 °C 7.6 °C 1016.8 hPa South 12.9 km/h 12.9 km/h 89 % 0 mm 39 W/m2
07:25 9.3 °C 7.6 °C 1016.8 hPa South 11.3 km/h 12.9 km/h 89 % 0 mm 44 W/m2
07:30 9.3 °C 7.6 °C 1016.8 hPa SW 11.3 km/h 12.9 km/h 89 % 0 mm 49 W/m2
07:35 9.3 °C 7.6 °C 1016.5 hPa South 9.7 km/h 12.9 km/h 89 % 0 mm 56 W/m2
07:40 9.3 °C 7.6 °C 1016.5 hPa South 6.4 km/h 6.4 km/h 89 % 0 mm 58 W/m2
07:50 9.3 °C 7.8 °C 1016.1 hPa South 4.8 km/h 12.9 km/h 90 % 0 mm 62 W/m2
07:55 9.3 °C 7.8 °C 1016.1 hPa South 6.4 km/h 12.9 km/h 90 % 0 mm 65 W/m2
08:00 9.3 °C 7.8 °C 1016.1 hPa SSE 6.4 km/h 6.4 km/h 90 % 0 mm 69 W/m2
08:05 9.4 °C 7.8 °C 1016.1 hPa SE 6.4 km/h 9.7 km/h 90 % 0 mm 76 W/m2
08:10 9.4 °C 7.8 °C 1016.5 hPa West 6.4 km/h 6.4 km/h 90 % 0 mm 70 W/m2
08:20 9.5 °C 7.9 °C 1016.5 hPa SSW 8 km/h 17.7 km/h 90 % 0 mm 65 W/m2
08:25 9.6 °C 8 °C 1016.5 hPa SW 9.7 km/h 17.7 km/h 90 % 0 mm 62 W/m2
08:35 9.6 °C 8.1 °C 1016.5 hPa WSW 4.8 km/h 12.9 km/h 90 % 0 mm 56 W/m2
08:40 9.7 °C 8.1 °C 1016.5 hPa WSW 1.6 km/h 12.9 km/h 90 % 0 mm 63 W/m2
08:45 9.7 °C 8.2 °C 1016.5 hPa SSE 1.6 km/h 12.9 km/h 90 % 0 mm 69 W/m2
08:55 9.8 °C 8.2 °C 1016.5 hPa SSE 1.6 km/h 8 km/h 90 % 0 mm 74 W/m2
09:00 9.8 °C 8.3 °C 1016.5 hPa SW 3.2 km/h 3.2 km/h 90 % 0 mm 62 W/m2
09:05 9.9 °C 8.4 °C 1016.5 hPa SSE 3.2 km/h 12.9 km/h 90 % 0 mm 58 W/m2
09:10 10 °C 8.4 °C 1016.5 hPa ESE 3.2 km/h 12.9 km/h 90 % 0 mm 56 W/m2
09:15 10.1 °C 8.5 °C 1016.5 hPa SSE 4.8 km/h 12.9 km/h 90 % 0 mm 70 W/m2
09:20 10.2 °C 8.6 °C 1016.5 hPa South 8 km/h 8 km/h 90 % 0 mm 63 W/m2
09:30 10.3 °C 8.6 °C 1016.5 hPa SE 4.8 km/h 4.8 km/h 89 % 0 mm 58 W/m2
09:35 10.3 °C 8.6 °C 1016.5 hPa SE 4.8 km/h 6.4 km/h 89 % 0 mm 58 W/m2
09:40 10.4 °C 8.7 °C 1016.1 hPa SE 4.8 km/h 4.8 km/h 89 % 0 mm 62 W/m2
09:50 10.5 °C 8.6 °C 1016.1 hPa South 8 km/h 8 km/h 88 % 0 mm 69 W/m2
09:55 10.6 °C 8.7 °C 1016.1 hPa SE 8 km/h 12.9 km/h 88 % 0 mm 72 W/m2
10:05 10.7 °C 8.8 °C 1016.1 hPa South 4.8 km/h 12.9 km/h 88 % 0 mm 81 W/m2
10:10 10.7 °C 8.8 °C 1016.1 hPa South 4.8 km/h 12.9 km/h 88 % 0 mm 72 W/m2
10:15 10.8 °C 8.9 °C 1016.1 hPa South 1.6 km/h 12.9 km/h 88 % 0 mm 72 W/m2
10:20 10.8 °C 8.9 °C 1016.1 hPa South 1.6 km/h 12.9 km/h 88 % 0 mm 69 W/m2
10:25 10.9 °C 8.8 °C 1016.1 hPa South 3.2 km/h 12.9 km/h 87 % 0 mm 72 W/m2
10:30 10.9 °C 8.9 °C 1016.1 hPa SSE 3.2 km/h 3.2 km/h 87 % 0 mm 84 W/m2
10:35 11 °C 8.7 °C 1016.1 hPa Calm   6.4 km/h 86 % 0 mm 98 W/m2
10:40 11.1 °C 8.8 °C 1016.1 hPa SSE 1.6 km/h 1.6 km/h 86 % 0 mm 118 W/m2
10:45 11.1 °C 8.8 °C 1016.1 hPa SSW 1.6 km/h 8 km/h 86 % 0 mm 141 W/m2
10:50 11.2 °C 8.9 °C 1016.1 hPa SSW 3.2 km/h 12.9 km/h 86 % 0 mm 167 W/m2
10:55 11.3 °C 9.1 °C 1016.5 hPa SW 6.4 km/h 12.9 km/h 86 % 0 mm 206 W/m2
11:00 11.4 °C 9.2 °C 1016.5 hPa SSW 9.7 km/h 9.7 km/h 86 % 0 mm 195 W/m2
11:10 11.7 °C 9.2 °C 1016.1 hPa West 6.4 km/h 12.9 km/h 85 % 0 mm 206 W/m2
11:20 11.9 °C 9.3 °C 1016.1 hPa WSW 8 km/h 12.9 km/h 84 % 0 mm 213 W/m2
11:25 11.9 °C 9.2 °C 1016.1 hPa WSW 9.7 km/h 12.9 km/h 83 % 0 mm 223 W/m2
11:30 12.1 °C 9.3 °C 1016.1 hPa SSW 9.7 km/h 12.9 km/h 83 % 0 mm 255 W/m2
11:35 12.1 °C 9.3 °C 1016.1 hPa SSW 9.7 km/h 12.9 km/h 83 % 0 mm 258 W/m2
11:45 12.3 °C 9.3 °C 1016.1 hPa WSW 11.3 km/h 14.5 km/h 82 % 0 mm 241 W/m2
11:50 12.4 °C 9.4 °C 1016.1 hPa SW 11.3 km/h 16.1 km/h 82 % 0 mm 218 W/m2
11:55 12.4 °C 9.2 °C 1016.1 hPa SW 11.3 km/h 16.1 km/h 81 % 0 mm 172 W/m2
12:00 12.4 °C 9.4 °C 1016.1 hPa SSW 8 km/h 12.9 km/h 82 % 0 mm 197 W/m2
12:05 12.4 °C 9.3 °C 1016.1 hPa SSW 6.4 km/h 12.9 km/h 81 % 0 mm 178 W/m2
12:15 12.6 °C 9.4 °C 1016.1 hPa SSW 6.4 km/h 12.9 km/h 81 % 0 mm 167 W/m2
12:25 12.7 °C 9.5 °C 1016.1 hPa WSW 3.2 km/h 12.9 km/h 81 % 0 mm 156 W/m2
12:30 12.7 °C 9.6 °C 1016.1 hPa WSW 3.2 km/h 3.2 km/h 81 % 0 mm 148 W/m2
12:35 12.8 °C 9.4 °C 1016.1 hPa WSW 6.4 km/h 6.4 km/h 80 % 0 mm 149 W/m2
12:40 12.8 °C 9.4 °C 1015.8 hPa SSW 6.4 km/h 12.9 km/h 80 % 0 mm 181 W/m2
12:50 12.8 °C 9.4 °C 1015.8 hPa SW 4.8 km/h 4.8 km/h 80 % 0 mm 176 W/m2
12:55 12.9 °C 9.5 °C 1015.8 hPa SW 4.8 km/h 8 km/h 80 % 0 mm 181 W/m2
13:00 12.9 °C 9.4 °C 1015.8 hPa SSW 6.4 km/h 6.4 km/h 79 % 0 mm 149 W/m2
13:05 13 °C 9.4 °C 1015.8 hPa SSW 4.8 km/h 12.9 km/h 79 % 0 mm 174 W/m2
13:10 13.1 °C 9.5 °C 1015.8 hPa SSW 1.6 km/h 12.9 km/h 79 % 0 mm 172 W/m2
13:15 13.1 °C 9.6 °C 1015.5 hPa Calm   12.9 km/h 79 % 0 mm 142 W/m2
13:25 13.3 °C 9.5 °C 1015.5 hPa SSW 1.6 km/h 12.9 km/h 78 % 0 mm 116 W/m2
13:30 13.3 °C 9.5 °C 1015.5 hPa SSW 1.6 km/h 12.9 km/h 78 % 0 mm 113 W/m2
13:35 13.3 °C 9.5 °C 1015.5 hPa SSE 3.2 km/h 12.9 km/h 78 % 0 mm 98 W/m2
13:40 13.3 °C 9.5 °C 1015.5 hPa SSE 3.2 km/h 12.9 km/h 78 % 0 mm 128 W/m2
13:50 13.3 °C 9.7 °C 1015.1 hPa SSW 3.2 km/h 3.2 km/h 79 % 0 mm 127 W/m2
14:00 13.3 °C 9.5 °C 1015.5 hPa SSW 6.4 km/h 6.4 km/h 78 % 0 mm 72 W/m2
14:05 13.3 °C 9.5 °C 1015.1 hPa SSW 6.4 km/h 8 km/h 78 % 0 mm 79 W/m2
14:10 13.2 °C 9.4 °C 1015.1 hPa SSE 4.8 km/h 12.9 km/h 78 % 0 mm 86 W/m2
14:30 13.3 °C 9.7 °C 1015.1 hPa SSW 6.4 km/h 6.4 km/h 79 % 0 mm 79 W/m2
14:35 13.3 °C 9.7 °C 1014.8 hPa SSW 4.8 km/h 8 km/h 79 % 0 mm 60 W/m2
14:40 13.2 °C 9.7 °C 1015.1 hPa SSW 4.8 km/h 6.4 km/h 79 % 0 mm 54 W/m2
14:45 13.2 °C 9.7 °C 1014.8 hPa SSW 4.8 km/h 6.4 km/h 79 % 0 mm 53 W/m2
14:55 13.2 °C 9.7 °C 1014.8 hPa SSW 8 km/h 11.3 km/h 79 % 0 mm 76 W/m2
15:00 13.2 °C 9.6 °C 1014.8 hPa SW 8 km/h 8 km/h 79 % 0 mm 113 W/m2
15:10 13.3 °C 9.7 °C 1014.4 hPa SW 8 km/h 8 km/h 79 % 0 mm 130 W/m2
15:15 13.3 °C 9.8 °C 1014.8 hPa SW 8 km/h 8 km/h 79 % 0 mm 113 W/m2
15:20 13.3 °C 9.8 °C 1014.8 hPa SSW 6.4 km/h 6.4 km/h 79 % 0 mm 104 W/m2
15:25 13.4 °C 9.8 °C 1014.8 hPa SW 4.8 km/h 12.9 km/h 79 % 0 mm 91 W/m2
15:30 13.4 °C 9.6 °C 1014.8 hPa SW 4.8 km/h 12.9 km/h 78 % 0 mm 58 W/m2
15:35 13.4 °C 9.6 °C 1014.8 hPa SW 6.4 km/h 12.9 km/h 78 % 0 mm 39 W/m2
15:40 13.4 °C 9.8 °C 1014.4 hPa SW 3.2 km/h 3.2 km/h 79 % 0 mm 37 W/m2
15:45 13.3 °C 9.8 °C 1014.8 hPa SW 3.2 km/h 6.4 km/h 79 % 0 mm 30 W/m2
15:50 13.3 °C 9.8 °C 1014.4 hPa SW 4.8 km/h 12.9 km/h 79 % 0 mm 30 W/m2
16:00 13.3 °C 9.7 °C 1014.1 hPa SSW 3.2 km/h 12.9 km/h 79 % 0 mm 33 W/m2
16:05 13.3 °C 9.9 °C 1014.1 hPa SSE 4.8 km/h 12.9 km/h 80 % 0 mm 37 W/m2
16:15 13.3 °C 10.1 °C 1014.1 hPa South 4.8 km/h 12.9 km/h 81 % 0 mm 19 W/m2
16:20 13.2 °C 10.1 °C 1014.1 hPa South 3.2 km/h 12.9 km/h 81 % 0 mm 21 W/m2
16:25 13.2 °C 10.2 °C 1014.4 hPa South 3.2 km/h 12.9 km/h 82 % 0 mm 28 W/m2
16:30 13.2 °C 10.2 °C 1014.4 hPa South 3.2 km/h 3.2 km/h 82 % 0 mm 21 W/m2
16:35 13.2 °C 10.2 °C 1014.4 hPa South 3.2 km/h 12.9 km/h 82 % 0 mm 25 W/m2
16:40 13.2 °C 10.2 °C 1014.1 hPa South 3.2 km/h 3.2 km/h 82 % 0 mm 32 W/m2
16:50 13.1 °C 10.3 °C 1014.1 hPa Calm   12.9 km/h 83 % 0 mm 21 W/m2
16:55 13.1 °C 10.3 °C 1014.1 hPa South 1.6 km/h 12.9 km/h 83 % 0 mm 16 W/m2
17:00 13.1 °C 10.3 °C 1014.1 hPa South 3.2 km/h 12.9 km/h 83 % 0 mm 18 W/m2
17:10 13.1 °C 10.2 °C 1014.1 hPa SSE 4.8 km/h 4.8 km/h 83 % 0 mm 23 W/m2
17:15 13.1 °C 10.2 °C 1014.1 hPa South 4.8 km/h 6.4 km/h 83 % 0 mm 37 W/m2
17:20 13.1 °C 10.4 °C 1014.1 hPa SSE 3.2 km/h 3.2 km/h 84 % 0 mm 44 W/m2
17:25 13 °C 10.3 °C 1014.1 hPa SSE 3.2 km/h 6.4 km/h 84 % 0 mm 40 W/m2
17:30 13 °C 10.3 °C 1014.1 hPa South 3.2 km/h 3.2 km/h 84 % 0 mm 33 W/m2
17:35 13 °C 10.3 °C 1014.1 hPa South 4.8 km/h 6.4 km/h 84 % 0 mm 21 W/m2
17:40 13 °C 10.3 °C 1014.1 hPa SSE 4.8 km/h 12.9 km/h 84 % 0 mm 14 W/m2
17:45 13 °C 10.3 °C 1014.1 hPa SSE 6.4 km/h 12.9 km/h 84 % 0 mm 11 W/m2
17:55 12.9 °C 10.4 °C 1014.1 hPa SSE 8 km/h 12.9 km/h 85 % 0 mm 5 W/m2
18:00 12.8 °C 10.6 °C 1014.1 hPa SSE 8 km/h 8 km/h 86 % 0 mm 0 W/m2
18:10 12.7 °C 10.4 °C 1014.1 hPa SSE 8 km/h 12.9 km/h 86 % 0 mm 0 W/m2
18:15 12.7 °C 10.6 °C 1014.1 hPa SE 8 km/h 12.9 km/h 87 % 0 mm 0 W/m2
18:20 12.7 °C 10.6 °C 1014.1 hPa SSE 8 km/h 12.9 km/h 87 % 0 mm 0 W/m2
18:30 12.6 °C 10.5 °C 1014.1 hPa SE 8 km/h 8 km/h 87 % 0 mm 0 W/m2
18:35 12.6 °C 10.4 °C 1014.1 hPa SSE 6.4 km/h 12.9 km/h 87 % 0 mm 0 W/m2
18:40 12.6 °C 10.6 °C 1014.1 hPa SSE 6.4 km/h 12.9 km/h 88 % 0 mm 0 W/m2
18:45 12.5 °C 10.6 °C 1014.4 hPa SSE 8 km/h 12.9 km/h 88 % 0 mm 0 W/m2
18:50 12.4 °C 10.5 °C 1014.1 hPa SE 8 km/h 12.9 km/h 88 % 0 mm 0 W/m2
18:55 12.4 °C 10.5 °C 1014.1 hPa SE 9.7 km/h 12.9 km/h 88 % 0 mm 0 W/m2
19:05 12.4 °C 10.6 °C 1014.1 hPa SE 8 km/h 12.9 km/h 89 % 0 mm 0 W/m2
19:15 12.3 °C 10.6 °C 1014.1 hPa SSE 8 km/h 12.9 km/h 89 % 0 mm 0 W/m2
19:20 12.3 °C 10.6 °C 1014.1 hPa SSE 8 km/h 12.9 km/h 89 % 0 mm 0 W/m2
19:25 12.3 °C 10.5 °C 1014.1 hPa SSE 6.4 km/h 12.9 km/h 89 % 0 mm 0 W/m2
19:30 12.3 °C 10.5 °C 1014.1 hPa SE 6.4 km/h 12.9 km/h 89 % 0 mm 0 W/m2
19:35 12.2 °C 10.4 °C 1014.1 hPa SE 6.4 km/h 12.9 km/h 89 % 0 mm 0 W/m2
19:40 12.2 °C 10.4 °C 1014.1 hPa SE 8 km/h 8 km/h 89 % 0 mm 0 W/m2
19:45 12.2 °C 10.4 °C 1014.1 hPa SSE 8 km/h 12.9 km/h 89 % 0 mm 0 W/m2
19:50 12.2 °C 10.4 °C 1014.1 hPa ESE 6.4 km/h 6.4 km/h 89 % 0 mm 0 W/m2
19:55 12.2 °C 10.6 °C 1014.1 hPa SE 4.8 km/h 12.9 km/h 90 % 0 mm 0 W/m2
20:00 12.2 °C 10.6 °C 1014.1 hPa SE 3.2 km/h 3.2 km/h 90 % 0 mm 0 W/m2
20:10 12.1 °C 10.5 °C 1013.8 hPa ESE 4.8 km/h 12.9 km/h 90 % 0 mm 0 W/m2
20:15 12.1 °C 10.5 °C 1013.8 hPa SE 4.8 km/h 12.9 km/h 90 % 0 mm 0 W/m2
20:20 12.1 °C 10.5 °C 1013.8 hPa SSE 8 km/h 12.9 km/h 90 % 0 mm 0 W/m2
20:25 12.1 °C 10.4 °C 1013.8 hPa SE 8 km/h 12.9 km/h 90 % 0 mm 0 W/m2
20:30 12.1 °C 10.6 °C 1013.8 hPa SSE 8 km/h 8 km/h 91 % 0 mm 0 W/m2
20:35 12 °C 10.6 °C 1013.8 hPa SSE 8 km/h 12.9 km/h 91 % 0 mm 0 W/m2
20:45 12 °C 10.6 °C 1013.8 hPa SE 9.7 km/h 11.3 km/h 91 % 0 mm 0 W/m2
20:50 11.9 °C 10.5 °C 1013.4 hPa SE 9.7 km/h 9.7 km/h 91 % 0 mm 0 W/m2
20:55 11.9 °C 10.5 °C 1013.4 hPa SE 9.7 km/h 16.1 km/h 91 % 0 mm 0 W/m2
21:00 11.9 °C 10.7 °C 1013.4 hPa SSE 11.3 km/h 11.3 km/h 92 % 0 mm 0 W/m2
21:05 11.9 °C 10.6 °C 1013.4 hPa SE 11.3 km/h 12.9 km/h 92 % 0 mm 0 W/m2
21:15 11.9 °C 10.6 °C 1013.4 hPa SSE 11.3 km/h 14.5 km/h 92 % 0 mm 0 W/m2
21:20 11.9 °C 10.6 °C 1013.4 hPa SE 11.3 km/h 12.9 km/h 92 % 0 mm 0 W/m2
21:25 11.9 °C 10.6 °C 1013.4 hPa SE 9.7 km/h 12.9 km/h 92 % 0 mm 0 W/m2
21:30 11.8 °C 10.6 °C 1013.4 hPa SE 9.7 km/h 12.9 km/h 92 % 0 mm 0 W/m2
21:35 11.8 °C 10.6 °C 1013.4 hPa SE 9.7 km/h 12.9 km/h 92 % 0 mm 0 W/m2
21:40 11.8 °C 10.7 °C 1013.1 hPa SE 9.7 km/h 12.9 km/h 93 % 0 mm 0 W/m2
21:45 11.8 °C 10.7 °C 1013.1 hPa SE 11.3 km/h 12.9 km/h 93 % 0 mm 0 W/m2
21:55 11.7 °C 10.6 °C 1013.1 hPa SE 9.7 km/h 14.5 km/h 93 % 0 mm 0 W/m2
22:00 11.7 °C 10.6 °C 1013.1 hPa SSE 9.7 km/h 9.7 km/h 93 % 0 mm 0 W/m2
22:05 11.7 °C 10.6 °C 1013.1 hPa SE 9.7 km/h 11.3 km/h 93 % 0 mm 0 W/m2
22:10 11.7 °C 10.6 °C 1013.1 hPa SE 8 km/h 8 km/h 93 % 0 mm 0 W/m2
22:15 11.7 °C 10.6 °C 1013.1 hPa SE 8 km/h 9.7 km/h 93 % 0 mm 0 W/m2
22:25 11.7 °C 10.6 °C 1013.1 hPa SE 8 km/h 12.9 km/h 93 % 0 mm 0 W/m2
22:30 11.7 °C 10.6 °C 1013.1 hPa ESE 8 km/h 12.9 km/h 93 % 0 mm 0 W/m2
22:35 11.7 °C 10.6 °C 1013.1 hPa South 8 km/h 12.9 km/h 93 % 0 mm 0 W/m2
22:40 11.8 °C 10.7 °C 1012.8 hPa SSE 9.7 km/h 9.7 km/h 93 % 0 mm 0 W/m2
22:45 11.8 °C 10.7 °C 1012.8 hPa South 9.7 km/h 12.9 km/h 93 % 0 mm 0 W/m2
22:50 11.8 °C 10.7 °C 1012.8 hPa SSE 8 km/h 8 km/h 93 % 0 mm 0 W/m2
23:00 11.8 °C 10.7 °C 1012.8 hPa SSE 8 km/h 12.9 km/h 93 % 0 mm 0 W/m2
23:05 11.8 °C 10.7 °C 1012.8 hPa SSE 8 km/h 14.5 km/h 93 % 0 mm 0 W/m2
23:10 11.8 °C 10.7 °C 1012.8 hPa SSE 9.7 km/h 12.9 km/h 93 % 0 mm 0 W/m2
23:15 11.8 °C 10.7 °C 1012.4 hPa SE 9.7 km/h 12.9 km/h 93 % 0 mm 0 W/m2
23:20 11.8 °C 10.7 °C 1012.4 hPa SE 11.3 km/h 19.3 km/h 93 % 0 mm 0 W/m2
23:25 11.8 °C 10.7 °C 1012.4 hPa SSW 11.3 km/h 19.3 km/h 93 % 0 mm 0 W/m2
23:30 11.8 °C 10.7 °C 1012.1 hPa South 9.7 km/h 9.7 km/h 93 % 0 mm 0 W/m2
23:35 11.8 °C 10.7 °C 1012.1 hPa SE 8 km/h 12.9 km/h 93 % 0 mm 0 W/m2
23:40 11.8 °C 10.7 °C 1012.1 hPa SSE 4.8 km/h 4.8 km/h 93 % 0 mm 0 W/m2
23:45 11.7 °C 10.6 °C 1012.1 hPa SSE 3.2 km/h 12.9 km/h 93 % 0 mm 0 W/m2
23:50 11.7 °C 10.6 °C 1012.1 hPa South 3.2 km/h 12.9 km/h 93 % 0 mm 0 W/m2
23:55 11.7 °C 10.6 °C 1012.1 hPa South 1.6 km/h 12.9 km/h 93 % 0 mm 0 W/m2
Delerius-Weather
Compliments of Weather Underground - 2 mb

Data updates at regular intervals.